Year,Month,Day,Hour,Minute,Value (Times are PST for temperature in C)
2017,02,25,00,01,4.20
2017,02,25,00,02,4.20
2017,02,25,00,03,4.20
2017,02,25,00,04,4.20
2017,02,25,00,06,4.20
2017,02,25,00,07,4.20
2017,02,25,00,09,4.20
2017,02,25,00,10,4.20
2017,02,25,00,12,4.20
2017,02,25,00,13,4.20
2017,02,25,00,14,4.20
2017,02,25,00,16,4.20
2017,02,25,00,17,4.20
2017,02,25,00,18,4.20
2017,02,25,00,19,4.20
2017,02,25,00,21,4.20
2017,02,25,00,22,4.10
2017,02,25,00,23,4.10
2017,02,25,00,24,4.10
2017,02,25,00,26,4.20
2017,02,25,00,27,4.20
2017,02,25,00,28,4.20
2017,02,25,00,29,4.20
2017,02,25,00,31,4.20
2017,02,25,00,32,4.20
2017,02,25,00,33,4.20
2017,02,25,00,34,4.20
2017,02,25,00,36,4.20
2017,02,25,00,37,4.20
2017,02,25,00,38,4.20
2017,02,25,00,39,4.20
2017,02,25,00,41,4.20
2017,02,25,00,42,4.20
2017,02,25,00,43,4.20
2017,02,25,00,44,4.20
2017,02,25,00,46,4.20
2017,02,25,00,47,4.20
2017,02,25,00,48,4.20
2017,02,25,00,49,4.20
2017,02,25,00,51,4.20
2017,02,25,00,52,4.20
2017,02,25,00,53,4.20
2017,02,25,00,54,4.20
2017,02,25,00,56,4.20
2017,02,25,00,57,4.20
2017,02,25,00,58,4.20
2017,02,25,00,59,4.20
2017,02,25,01,01,4.20
2017,02,25,01,02,4.20
2017,02,25,01,03,4.20
2017,02,25,01,04,4.20
2017,02,25,01,06,4.20
2017,02,25,01,07,4.20
2017,02,25,01,08,4.20
2017,02,25,01,09,4.20
2017,02,25,01,19,4.20
2017,02,25,01,21,4.20
2017,02,25,01,22,4.20
2017,02,25,01,23,4.20
2017,02,25,01,24,4.20
2017,02,25,01,26,4.20
2017,02,25,01,27,4.20
2017,02,25,01,28,4.20
2017,02,25,01,29,4.20
2017,02,25,01,31,4.20
2017,02,25,01,32,4.20
2017,02,25,01,33,4.20
2017,02,25,01,34,4.20
2017,02,25,01,36,4.20
2017,02,25,01,37,4.20
2017,02,25,01,38,4.20
2017,02,25,01,39,4.20
2017,02,25,01,41,4.20
2017,02,25,01,42,4.20
2017,02,25,01,43,4.20
2017,02,25,01,44,4.20
2017,02,25,01,45,4.20
2017,02,25,01,46,4.20
2017,02,25,01,47,4.20
2017,02,25,01,48,4.20
2017,02,25,01,49,4.20
2017,02,25,01,50,4.20
2017,02,25,01,51,4.20
2017,02,25,01,52,4.20
2017,02,25,01,53,4.20
2017,02,25,01,54,4.10
2017,02,25,01,55,4.10
2017,02,25,01,56,4.10
2017,02,25,01,57,4.10
2017,02,25,01,58,4.10
2017,02,25,01,59,4.10
2017,02,25,02,00,4.10
2017,02,25,02,01,4.10
2017,02,25,02,02,4.10
2017,02,25,02,03,4.10
2017,02,25,02,04,4.10
2017,02,25,02,05,4.10
2017,02,25,02,06,4.10
2017,02,25,02,07,4.10
2017,02,25,02,08,4.10
2017,02,25,02,09,4.10
2017,02,25,02,10,4.10
2017,02,25,02,11,4.10
2017,02,25,02,12,4.10
2017,02,25,02,13,4.10
2017,02,25,02,14,4.10
2017,02,25,02,15,4.10
2017,02,25,02,16,4.10
2017,02,25,02,17,4.10
2017,02,25,02,18,4.10
2017,02,25,02,19,4.10
2017,02,25,02,20,4.10
2017,02,25,02,21,4.10
2017,02,25,02,22,4.10
2017,02,25,02,23,4.10
2017,02,25,02,24,4.10
2017,02,25,02,25,4.10
2017,02,25,02,26,4.10
2017,02,25,02,27,4.10
2017,02,25,02,28,4.10
2017,02,25,02,29,4.10
2017,02,25,02,30,4.00
2017,02,25,02,31,4.00
2017,02,25,02,32,4.00
2017,02,25,02,33,4.10
2017,02,25,02,34,4.10
2017,02,25,02,35,4.10
2017,02,25,02,36,4.10
2017,02,25,02,37,4.10
2017,02,25,02,38,4.10
2017,02,25,02,39,4.10
2017,02,25,02,40,4.10
2017,02,25,02,41,4.10
2017,02,25,02,42,4.10
2017,02,25,02,43,4.00
2017,02,25,02,44,4.00
2017,02,25,02,45,4.00
2017,02,25,02,46,4.00
2017,02,25,02,47,4.00
2017,02,25,02,48,4.00
2017,02,25,02,49,4.00
2017,02,25,02,51,4.00
2017,02,25,02,52,4.00
2017,02,25,02,53,4.00
2017,02,25,02,54,4.00
2017,02,25,02,56,3.90
2017,02,25,02,57,3.90
2017,02,25,02,58,3.90
2017,02,25,02,59,3.90
2017,02,25,03,01,3.90
2017,02,25,03,02,3.90
2017,02,25,03,03,3.90
2017,02,25,03,04,3.80
2017,02,25,03,06,3.80
2017,02,25,03,07,3.80
2017,02,25,03,08,3.80
2017,02,25,03,09,3.80
2017,02,25,03,11,3.80
2017,02,25,03,12,3.80
2017,02,25,03,13,3.80
2017,02,25,03,14,3.80
2017,02,25,03,16,3.80
2017,02,25,03,17,3.80
2017,02,25,03,18,3.80
2017,02,25,03,19,3.80
2017,02,25,03,21,3.80
2017,02,25,03,22,3.80
2017,02,25,03,23,3.80
2017,02,25,03,24,3.70
2017,02,25,03,26,3.70
2017,02,25,03,27,3.70
2017,02,25,03,28,3.70
2017,02,25,03,29,3.70
2017,02,25,03,31,3.70
2017,02,25,03,32,3.70
2017,02,25,03,33,3.70
2017,02,25,03,34,3.70
2017,02,25,03,36,3.70
2017,02,25,03,37,3.70
2017,02,25,03,38,3.70
2017,02,25,03,39,3.70
2017,02,25,03,41,3.70
2017,02,25,03,42,3.70
2017,02,25,03,43,3.70
2017,02,25,03,44,3.70
2017,02,25,03,46,3.60
2017,02,25,03,47,3.60
2017,02,25,03,48,3.60
2017,02,25,03,49,3.60
2017,02,25,03,51,3.60
2017,02,25,03,52,3.60
2017,02,25,03,53,3.60
2017,02,25,03,54,3.60
2017,02,25,03,55,3.50
2017,02,25,03,56,3.50
2017,02,25,03,57,3.50
2017,02,25,03,58,3.50
2017,02,25,03,59,3.40
2017,02,25,04,00,3.40
2017,02,25,04,01,3.40
2017,02,25,04,02,3.30
2017,02,25,04,03,3.30
2017,02,25,04,04,3.30
2017,02,25,04,05,3.30
2017,02,25,04,06,3.30
2017,02,25,04,07,3.30
2017,02,25,04,08,3.30
2017,02,25,04,09,3.20
2017,02,25,04,10,3.20
2017,02,25,04,11,3.20
2017,02,25,04,12,3.20
2017,02,25,04,13,3.20
2017,02,25,04,14,3.20
2017,02,25,04,15,3.20
2017,02,25,04,16,3.20
2017,02,25,04,17,3.20
2017,02,25,04,18,3.10
2017,02,25,04,19,3.10
2017,02,25,04,20,3.10
2017,02,25,04,21,3.10
2017,02,25,04,22,3.10
2017,02,25,04,23,3.10
2017,02,25,04,24,3.10
2017,02,25,04,25,3.10
2017,02,25,04,26,3.10
2017,02,25,04,27,3.10
2017,02,25,04,28,3.10
2017,02,25,04,29,3.10
2017,02,25,04,30,3.10
2017,02,25,04,31,3.10
2017,02,25,04,32,3.10
2017,02,25,04,33,3.10
2017,02,25,04,34,3.10
2017,02,25,04,35,2.90
2017,02,25,04,36,2.90
2017,02,25,04,37,2.90
2017,02,25,04,38,2.90
2017,02,25,04,39,2.90
2017,02,25,04,40,2.90
2017,02,25,04,41,2.90
2017,02,25,04,42,2.80
2017,02,25,04,43,2.80
2017,02,25,04,44,2.70
2017,02,25,04,45,2.70
2017,02,25,04,46,2.70
2017,02,25,04,47,2.60
2017,02,25,04,48,2.60
2017,02,25,04,49,2.50
2017,02,25,04,50,2.50
2017,02,25,04,51,2.40
2017,02,25,04,52,2.40
2017,02,25,04,53,2.30
2017,02,25,04,54,2.30
2017,02,25,04,55,2.30
2017,02,25,04,56,2.20
2017,02,25,04,57,2.20
2017,02,25,04,58,2.20
2017,02,25,04,59,2.20
2017,02,25,05,00,2.20
2017,02,25,05,01,2.20
2017,02,25,05,03,2.10
2017,02,25,05,04,2.10
2017,02,25,05,06,2.00
2017,02,25,05,07,2.00
2017,02,25,05,08,1.90
2017,02,25,05,09,1.90
2017,02,25,05,11,1.80
2017,02,25,05,12,1.80
2017,02,25,05,13,1.80
2017,02,25,05,14,1.80
2017,02,25,05,16,1.80
2017,02,25,05,17,1.80
2017,02,25,05,18,1.80
2017,02,25,05,19,1.80
2017,02,25,05,21,1.80
2017,02,25,05,22,1.80
2017,02,25,05,23,1.80
2017,02,25,05,24,1.80
2017,02,25,05,26,1.80
2017,02,25,05,27,1.80
2017,02,25,05,28,1.80
2017,02,25,05,29,1.80
2017,02,25,05,31,1.90
2017,02,25,05,32,1.90
2017,02,25,05,33,1.90
2017,02,25,05,34,1.90
2017,02,25,05,36,2.00
2017,02,25,05,37,2.10
2017,02,25,05,38,2.10
2017,02,25,05,39,2.10
2017,02,25,05,41,2.10
2017,02,25,06,19,2.50
2017,02,25,06,21,2.50
2017,02,25,06,22,2.50
2017,02,25,06,23,2.50
2017,02,25,06,24,2.50
2017,02,25,06,26,2.50
2017,02,25,06,27,2.50
2017,02,25,06,28,2.50
2017,02,25,06,29,2.50
2017,02,25,06,31,2.50
2017,02,25,06,32,2.50
2017,02,25,06,33,2.50
2017,02,25,06,34,2.50
2017,02,25,06,35,2.50
2017,02,25,06,36,2.50
2017,02,25,06,37,2.50
2017,02,25,06,38,2.50
2017,02,25,06,39,2.50
2017,02,25,06,40,2.50
2017,02,25,06,41,2.50
2017,02,25,06,42,2.50
2017,02,25,06,43,2.50
2017,02,25,06,44,2.50
2017,02,25,06,45,2.50
2017,02,25,06,46,2.50
2017,02,25,06,47,2.50
2017,02,25,06,48,2.60
2017,02,25,06,49,2.60
2017,02,25,06,50,2.60
2017,02,25,06,51,2.60
2017,02,25,06,52,2.60
2017,02,25,06,53,2.60
2017,02,25,06,54,2.60
2017,02,25,06,55,2.60
2017,02,25,06,56,2.60
2017,02,25,06,57,2.60
2017,02,25,06,58,2.60
2017,02,25,06,59,2.60
2017,02,25,07,00,2.60
2017,02,25,07,01,2.60
2017,02,25,07,02,2.60
2017,02,25,07,03,2.60
2017,02,25,07,04,2.60
2017,02,25,07,05,2.60
2017,02,25,07,06,2.60
2017,02,25,07,07,2.60
2017,02,25,07,08,2.60
2017,02,25,07,09,2.60
2017,02,25,07,10,2.60
2017,02,25,07,11,2.60
2017,02,25,07,12,2.60
2017,02,25,07,13,2.60
2017,02,25,07,14,2.60
2017,02,25,07,15,2.60
2017,02,25,07,16,2.60
2017,02,25,07,17,2.60
2017,02,25,07,18,2.60
2017,02,25,07,19,2.60
2017,02,25,07,20,2.60
2017,02,25,07,21,2.60
2017,02,25,07,22,2.60
2017,02,25,07,23,2.70
2017,02,25,07,24,2.70
2017,02,25,07,25,2.70
2017,02,25,07,26,2.70
2017,02,25,07,27,2.70
2017,02,25,07,28,2.70
2017,02,25,07,29,2.70
2017,02,25,07,30,2.70
2017,02,25,07,31,2.70
2017,02,25,07,32,2.70
2017,02,25,07,33,2.70
2017,02,25,07,34,2.70
2017,02,25,07,35,2.80
2017,02,25,07,36,2.80
2017,02,25,07,37,2.80
2017,02,25,07,38,2.80
2017,02,25,07,39,2.80
2017,02,25,07,40,2.90
2017,02,25,07,41,2.90
2017,02,25,07,42,2.90
2017,02,25,07,43,2.90
2017,02,25,07,44,2.90
2017,02,25,07,45,2.90
2017,02,25,07,46,2.90
2017,02,25,07,48,2.90
2017,02,25,07,49,2.90
2017,02,25,07,51,3.10
2017,02,25,07,52,3.10
2017,02,25,07,53,3.10
2017,02,25,07,54,3.10
2017,02,25,07,56,3.10
2017,02,25,07,57,3.10
2017,02,25,07,58,3.10
2017,02,25,07,59,3.10
2017,02,25,08,01,3.10
2017,02,25,08,02,3.10
2017,02,25,08,03,3.10
2017,02,25,08,04,3.10
2017,02,25,08,06,3.10
2017,02,25,08,07,3.10
2017,02,25,08,08,3.20
2017,02,25,08,09,3.20
2017,02,25,08,11,3.20
2017,02,25,08,12,3.20
2017,02,25,08,13,3.30
2017,02,25,08,14,3.30
2017,02,25,08,16,3.30
2017,02,25,08,17,3.30
2017,02,25,08,18,3.30
2017,02,25,08,19,3.40
2017,02,25,08,21,3.40
2017,02,25,08,22,3.50
2017,02,25,08,23,3.50
2017,02,25,08,24,3.50
2017,02,25,08,26,3.60
2017,02,25,08,27,3.60
2017,02,25,08,28,3.60
2017,02,25,08,29,3.60
2017,02,25,08,31,3.70
2017,02,25,08,32,3.70
2017,02,25,08,33,3.80
2017,02,25,08,34,3.80
2017,02,25,08,36,3.80
2017,02,25,08,37,3.80
2017,02,25,08,38,3.80
2017,02,25,08,39,3.80
2017,02,25,08,41,3.80
2017,02,25,08,42,3.80
2017,02,25,08,43,3.80
2017,02,25,08,44,3.80
2017,02,25,08,46,3.80
2017,02,25,08,47,3.90
2017,02,25,08,48,3.90
2017,02,25,08,49,3.90
2017,02,25,08,51,3.90
2017,02,25,08,52,3.90
2017,02,25,08,53,3.90
2017,02,25,08,54,3.90
2017,02,25,08,55,3.90
2017,02,25,08,56,3.90
2017,02,25,08,57,3.90
2017,02,25,08,58,3.90
2017,02,25,08,59,4.00
2017,02,25,09,00,4.00
2017,02,25,09,01,4.00
2017,02,25,09,02,4.00
2017,02,25,09,03,4.00
2017,02,25,09,04,4.00
2017,02,25,09,05,4.00
2017,02,25,09,06,4.00
2017,02,25,09,07,4.00
2017,02,25,09,08,4.10
2017,02,25,09,09,4.10
2017,02,25,09,10,4.10
2017,02,25,09,11,4.10
2017,02,25,09,12,4.10
2017,02,25,09,13,4.10
2017,02,25,09,14,4.10
2017,02,25,09,15,4.20
2017,02,25,09,16,4.20
2017,02,25,09,17,4.20
2017,02,25,09,18,4.20
2017,02,25,09,19,4.20
2017,02,25,09,20,4.20
2017,02,25,09,21,4.20
2017,02,25,09,22,4.20
2017,02,25,09,23,4.20
2017,02,25,09,24,4.20
2017,02,25,09,25,4.30
2017,02,25,09,26,4.30
2017,02,25,09,27,4.30
2017,02,25,09,28,4.40
2017,02,25,09,29,4.40
2017,02,25,09,30,4.40
2017,02,25,09,31,4.50
2017,02,25,09,32,4.50
2017,02,25,09,33,4.50
2017,02,25,09,34,4.60
2017,02,25,09,35,4.60
2017,02,25,09,36,4.60
2017,02,25,09,37,4.60
2017,02,25,09,38,4.60
2017,02,25,09,39,4.60
2017,02,25,09,40,4.60
2017,02,25,09,41,4.60
2017,02,25,09,42,4.60
2017,02,25,09,43,4.60
2017,02,25,09,44,4.60
2017,02,25,09,45,4.60
2017,02,25,09,46,4.60
2017,02,25,09,47,4.60
2017,02,25,09,48,4.60
2017,02,25,09,49,4.60
2017,02,25,09,50,4.70
2017,02,25,09,51,4.70
2017,02,25,09,52,4.70
2017,02,25,09,53,4.80
2017,02,25,09,54,4.80
2017,02,25,09,55,4.90
2017,02,25,09,56,4.90
2017,02,25,09,57,4.90
2017,02,25,09,58,4.90
2017,02,25,09,59,5.10
2017,02,25,10,00,5.10
2017,02,25,10,01,5.10
2017,02,25,10,02,5.10
2017,02,25,10,04,5.10
2017,02,25,10,06,5.10
2017,02,25,10,07,5.10
2017,02,25,10,08,5.10
2017,02,25,10,09,5.10
2017,02,25,10,11,5.10
2017,02,25,10,12,5.10
2017,02,25,10,13,5.10
2017,02,25,10,14,5.10
2017,02,25,10,16,5.20
2017,02,25,10,17,5.20
2017,02,25,10,18,5.20
2017,02,25,10,19,5.20
2017,02,25,10,21,5.20
2017,02,25,10,22,5.20
2017,02,25,10,23,5.30
2017,02,25,10,24,5.30
2017,02,25,10,26,5.30
2017,02,25,10,27,5.30
2017,02,25,10,28,5.30
2017,02,25,10,29,5.30
2017,02,25,10,31,5.40
2017,02,25,10,32,5.40
2017,02,25,10,33,5.40
2017,02,25,10,34,5.50
2017,02,25,10,36,5.60
2017,02,25,10,37,5.70
2017,02,25,10,38,5.70
2017,02,25,10,39,5.70
2017,02,25,10,41,5.70
2017,02,25,10,42,5.70
2017,02,25,10,43,5.70
2017,02,25,10,44,5.70
2017,02,25,10,46,5.80
2017,02,25,10,47,5.90
2017,02,25,10,48,5.90
2017,02,25,10,49,5.90
2017,02,25,10,51,6.00
2017,02,25,10,52,6.00
2017,02,25,10,53,6.00
2017,02,25,10,54,6.00
2017,02,25,10,56,6.00
2017,02,25,10,57,6.10
2017,02,25,10,58,6.10
2017,02,25,10,59,6.10
2017,02,25,11,01,6.10
2017,02,25,11,02,6.10
2017,02,25,11,03,6.10
2017,02,25,11,04,6.10
2017,02,25,11,06,6.10
2017,02,25,11,07,6.10
2017,02,25,11,08,6.10
2017,02,25,11,09,6.20
2017,02,25,11,11,6.20
2017,02,25,11,12,6.20
2017,02,25,11,13,6.20
2017,02,25,11,14,6.20
2017,02,25,11,16,6.20
2017,02,25,11,17,6.20
2017,02,25,11,18,6.20
2017,02,25,11,19,6.10
2017,02,25,11,21,6.00
2017,02,25,11,22,5.90
2017,02,25,11,23,5.80
2017,02,25,11,24,5.70
2017,02,25,11,25,5.70
2017,02,25,11,26,5.70
2017,02,25,11,27,5.70
2017,02,25,11,28,5.70
2017,02,25,11,29,5.70
2017,02,25,11,31,5.70
2017,02,25,11,32,5.60
2017,02,25,11,33,5.60
2017,02,25,11,34,5.60
2017,02,25,11,35,5.60
2017,02,25,11,36,5.60
2017,02,25,11,37,5.50
2017,02,25,11,38,5.50
2017,02,25,11,39,5.50
2017,02,25,11,40,5.50
2017,02,25,11,41,5.60
2017,02,25,11,42,5.60
2017,02,25,11,43,5.60
2017,02,25,11,44,5.60
2017,02,25,11,45,5.60
2017,02,25,11,46,5.60
2017,02,25,11,47,5.60
2017,02,25,11,48,5.60
2017,02,25,11,49,5.60
2017,02,25,11,50,5.70
2017,02,25,11,51,5.70
2017,02,25,11,52,5.70
2017,02,25,11,53,5.70
2017,02,25,11,54,5.70
2017,02,25,11,55,5.70
2017,02,25,11,56,5.70
2017,02,25,11,57,5.70
2017,02,25,11,58,5.70
2017,02,25,11,59,5.70
2017,02,25,12,00,5.70
2017,02,25,12,01,5.70
2017,02,25,12,02,5.60
2017,02,25,12,03,5.60
2017,02,25,12,04,5.60
2017,02,25,12,05,5.60
2017,02,25,12,06,5.60
2017,02,25,12,07,5.60
2017,02,25,12,08,5.60
2017,02,25,12,09,5.60
2017,02,25,12,10,5.70
2017,02,25,12,11,5.70
2017,02,25,12,12,5.70
2017,02,25,12,13,5.80
2017,02,25,12,14,5.80
2017,02,25,12,15,5.90
2017,02,25,12,16,6.00
2017,02,25,12,17,6.10
2017,02,25,12,18,6.20
2017,02,25,12,19,6.20
2017,02,25,12,20,6.30
2017,02,25,12,21,6.40
2017,02,25,12,22,6.40
2017,02,25,12,23,6.40
2017,02,25,12,24,6.60
2017,02,25,12,25,6.60
2017,02,25,12,26,6.60
2017,02,25,12,27,6.60
2017,02,25,12,28,6.60
2017,02,25,12,29,6.70
2017,02,25,12,30,6.70
2017,02,25,12,31,6.80
2017,02,25,12,32,6.80
2017,02,25,12,33,6.80
2017,02,25,12,34,6.80
2017,02,25,12,35,6.90
2017,02,25,12,36,6.90
2017,02,25,12,37,6.90
2017,02,25,12,38,6.90
2017,02,25,12,39,6.90
2017,02,25,12,40,6.90
2017,02,25,12,41,7.00
2017,02,25,12,42,7.00
2017,02,25,12,43,7.00
2017,02,25,12,44,7.00
2017,02,25,12,45,6.90
2017,02,25,12,46,7.00
2017,02,25,12,48,7.00
2017,02,25,12,49,7.00
2017,02,25,12,51,7.00
2017,02,25,12,52,7.10
2017,02,25,12,53,7.10
2017,02,25,12,54,7.10
2017,02,25,12,56,7.20
2017,02,25,12,57,7.20
2017,02,25,12,58,7.20
2017,02,25,12,59,7.30
2017,02,25,13,01,7.30
2017,02,25,13,02,7.30
2017,02,25,13,03,7.30
2017,02,25,13,04,7.30
2017,02,25,13,06,7.30
2017,02,25,13,07,7.30
2017,02,25,13,08,7.30
2017,02,25,13,09,7.30
2017,02,25,13,11,7.30
2017,02,25,13,12,7.40
2017,02,25,13,13,7.40
2017,02,25,13,14,7.40
2017,02,25,13,16,7.40
2017,02,25,13,17,7.40
2017,02,25,13,18,7.40
2017,02,25,13,19,7.40
2017,02,25,13,21,7.40
2017,02,25,13,22,7.40
2017,02,25,13,23,7.40
2017,02,25,13,24,7.40
2017,02,25,13,26,7.40
2017,02,25,13,27,7.30
2017,02,25,13,28,7.30
2017,02,25,13,29,7.30
2017,02,25,13,31,7.30
2017,02,25,13,32,7.30
2017,02,25,13,33,7.30
2017,02,25,13,34,7.30
2017,02,25,13,36,7.30
2017,02,25,13,37,7.30
2017,02,25,13,38,7.30
2017,02,25,13,39,7.30
2017,02,25,13,41,7.30
2017,02,25,13,42,7.30
2017,02,25,13,43,7.30
2017,02,25,13,44,7.30
2017,02,25,13,46,7.30
2017,02,25,13,47,7.20
2017,02,25,13,48,7.20
2017,02,25,13,49,7.20
2017,02,25,13,51,7.20
2017,02,25,13,52,7.20
2017,02,25,13,53,7.20
2017,02,25,13,54,7.10
2017,02,25,13,55,7.10
2017,02,25,13,56,7.10
2017,02,25,13,57,7.10
2017,02,25,13,58,7.10
2017,02,25,13,59,7.10
2017,02,25,14,00,7.00
2017,02,25,14,01,7.00
2017,02,25,14,02,7.00
2017,02,25,14,03,7.00
2017,02,25,14,04,7.00
2017,02,25,14,06,7.00
2017,02,25,14,07,7.00
2017,02,25,14,08,6.90
2017,02,25,14,09,6.90
2017,02,25,14,10,6.90
2017,02,25,14,11,6.90
2017,02,25,14,12,6.90
2017,02,25,14,13,6.90
2017,02,25,14,14,6.90
2017,02,25,14,15,6.90
2017,02,25,14,16,6.90
2017,02,25,14,17,6.90
2017,02,25,14,18,6.90
2017,02,25,14,19,6.80
2017,02,25,14,20,6.80
2017,02,25,14,21,6.80
2017,02,25,14,22,6.80
2017,02,25,14,23,6.80
2017,02,25,14,24,6.80
2017,02,25,14,25,6.80
2017,02,25,14,26,6.70
2017,02,25,14,27,6.70
2017,02,25,14,28,6.70
2017,02,25,14,29,6.70
2017,02,25,14,30,6.70
2017,02,25,14,31,6.70
2017,02,25,14,32,6.70
2017,02,25,14,33,6.70
2017,02,25,14,34,6.70
2017,02,25,14,35,6.70
2017,02,25,14,36,6.70
2017,02,25,14,37,6.70
2017,02,25,14,38,6.70
2017,02,25,14,39,6.60
2017,02,25,14,40,6.60
2017,02,25,14,41,6.60
2017,02,25,14,42,6.60
2017,02,25,14,43,6.60
2017,02,25,14,44,6.60
2017,02,25,14,45,6.60
2017,02,25,14,46,6.60
2017,02,25,14,47,6.60
2017,02,25,14,48,6.60
2017,02,25,14,49,6.60
2017,02,25,14,50,6.60
2017,02,25,14,51,6.60
2017,02,25,14,52,6.40
2017,02,25,14,53,6.40
2017,02,25,14,54,6.40
2017,02,25,14,55,6.40
2017,02,25,14,56,6.40
2017,02,25,14,57,6.40
2017,02,25,14,58,6.40
2017,02,25,14,59,6.40
2017,02,25,15,00,6.60
2017,02,25,15,01,6.60
2017,02,25,15,02,6.60
2017,02,25,15,03,6.60
2017,02,25,15,04,6.60
2017,02,25,15,05,6.60
2017,02,25,15,06,6.60
2017,02,25,15,07,6.40
2017,02,25,15,08,6.40
2017,02,25,15,09,6.40
2017,02,25,15,10,6.40
2017,02,25,15,11,6.40
2017,02,25,15,12,6.40
2017,02,25,15,13,6.40
2017,02,25,15,14,6.40
2017,02,25,15,15,6.40
2017,02,25,15,17,6.40
2017,02,25,15,18,6.40
2017,02,25,15,19,6.40
2017,02,25,15,21,6.30
2017,02,25,15,22,6.30
2017,02,25,15,23,6.30
2017,02,25,15,24,6.30
2017,02,25,15,26,6.20
2017,02,25,15,27,6.20
2017,02,25,15,28,6.20
2017,02,25,15,29,6.20
2017,02,25,15,31,6.20
2017,02,25,15,32,6.20
2017,02,25,15,33,6.20
2017,02,25,15,34,6.20
2017,02,25,15,36,6.10
2017,02,25,15,37,6.10
2017,02,25,15,38,6.10
2017,02,25,15,39,6.10
2017,02,25,15,41,6.00
2017,02,25,15,42,6.00
2017,02,25,15,43,6.00
2017,02,25,15,44,6.00
2017,02,25,15,46,5.90
2017,02,25,15,47,5.90
2017,02,25,15,48,5.80
2017,02,25,15,49,5.80
2017,02,25,15,51,5.80
2017,02,25,15,52,5.80
2017,02,25,15,53,5.80
2017,02,25,15,54,5.80
2017,02,25,15,56,5.80
2017,02,25,15,57,5.70
2017,02,25,15,58,5.70
2017,02,25,15,59,5.70
2017,02,25,16,01,5.70
2017,02,25,16,02,5.70
2017,02,25,16,03,5.70
2017,02,25,16,04,5.70
2017,02,25,16,06,5.70
2017,02,25,16,07,5.70
2017,02,25,16,08,5.70
2017,02,25,16,09,5.70
2017,02,25,16,11,5.70
2017,02,25,16,12,5.60
2017,02,25,16,13,5.60
2017,02,25,16,14,5.60
2017,02,25,16,16,5.50
2017,02,25,16,17,5.50
2017,02,25,16,18,5.50
2017,02,25,16,19,5.50
2017,02,25,16,21,5.50
2017,02,25,16,22,5.50
2017,02,25,16,23,5.50
2017,02,25,16,24,5.50
2017,02,25,16,26,5.50
2017,02,25,16,27,5.50
2017,02,25,16,28,5.60
2017,02,25,16,29,5.60
2017,02,25,16,31,5.60
2017,02,25,16,32,5.60
2017,02,25,16,33,5.60
2017,02,25,16,34,5.60
2017,02,25,16,36,5.60
2017,02,25,16,37,5.60
2017,02,25,16,38,5.60
2017,02,25,16,39,5.60
2017,02,25,16,40,5.60
2017,02,25,16,41,5.60
2017,02,25,16,42,5.60
2017,02,25,16,43,5.60
2017,02,25,16,44,5.60
2017,02,25,16,45,5.60
2017,02,25,16,46,5.60
2017,02,25,16,47,5.60
2017,02,25,16,48,5.60
2017,02,25,16,49,5.50
2017,02,25,16,50,5.50
2017,02,25,16,51,5.50
2017,02,25,16,52,5.50
2017,02,25,16,53,5.50
2017,02,25,16,54,5.50
2017,02,25,16,55,5.40
2017,02,25,16,56,5.40
2017,02,25,16,57,5.40
2017,02,25,16,58,5.40
2017,02,25,16,59,5.40
2017,02,25,17,00,5.40
2017,02,25,17,01,5.30
2017,02,25,17,02,5.30
2017,02,25,17,03,5.30
2017,02,25,17,04,5.30
2017,02,25,17,05,5.30
2017,02,25,17,06,5.30
2017,02,25,17,07,5.30
2017,02,25,17,08,5.30
2017,02,25,17,09,5.30
2017,02,25,17,10,5.30
2017,02,25,17,11,5.30
2017,02,25,17,12,5.30
2017,02,25,17,13,5.30
2017,02,25,17,14,5.30
2017,02,25,17,15,5.30
2017,02,25,17,16,5.30
2017,02,25,17,17,5.30
2017,02,25,17,18,5.30
2017,02,25,17,19,5.30
2017,02,25,17,20,5.30
2017,02,25,17,21,5.30
2017,02,25,17,22,5.30
2017,02,25,17,23,5.30
2017,02,25,17,24,5.30
2017,02,25,17,25,5.30
2017,02,25,17,26,5.30
2017,02,25,17,27,5.30
2017,02,25,17,28,5.30
2017,02,25,17,29,5.30
2017,02,25,17,30,5.30
2017,02,25,17,31,5.30
2017,02,25,17,32,5.30
2017,02,25,17,33,5.30
2017,02,25,17,34,5.30
2017,02,25,17,35,5.30
2017,02,25,17,36,5.30
2017,02,25,17,37,5.30
2017,02,25,17,38,5.30
2017,02,25,17,39,5.30
2017,02,25,17,40,5.30
2017,02,25,17,41,5.30
2017,02,25,17,42,5.30
2017,02,25,17,43,5.30
2017,02,25,17,44,5.30
2017,02,25,17,45,5.30
2017,02,25,17,46,5.30
2017,02,25,17,47,5.30
2017,02,25,17,48,5.30
2017,02,25,17,49,5.30
2017,02,25,17,51,5.30
2017,02,25,17,52,5.30
2017,02,25,17,53,5.30
2017,02,25,17,54,5.30
2017,02,25,18,19,4.80
2017,02,25,18,21,4.80
2017,02,25,18,22,4.80
2017,02,25,18,23,4.80
2017,02,25,18,24,4.70
2017,02,25,18,26,4.70
2017,02,25,18,27,4.70
2017,02,25,18,28,4.60
2017,02,25,18,29,4.60
2017,02,25,18,31,4.60
2017,02,25,18,32,4.60
2017,02,25,18,33,4.60
2017,02,25,18,34,4.60
2017,02,25,18,35,4.60
2017,02,25,18,36,4.60
2017,02,25,18,37,4.60
2017,02,25,18,38,4.60
2017,02,25,18,39,4.60
2017,02,25,18,40,4.60
2017,02,25,18,41,4.60
2017,02,25,18,42,4.60
2017,02,25,18,43,4.60
2017,02,25,18,44,4.60
2017,02,25,18,45,4.60
2017,02,25,18,46,4.60
2017,02,25,18,47,4.60
2017,02,25,18,48,4.60
2017,02,25,18,49,4.60
2017,02,25,19,19,4.50
2017,02,25,19,21,4.50
2017,02,25,19,22,4.50
2017,02,25,19,23,4.50
2017,02,25,19,24,4.50
2017,02,25,19,26,4.50
2017,02,25,19,27,4.50
2017,02,25,19,28,4.50
2017,02,25,19,29,4.50
2017,02,25,19,31,4.50
2017,02,25,19,32,4.50
2017,02,25,19,33,4.50
2017,02,25,19,34,4.50
2017,02,25,19,35,4.50
2017,02,25,19,36,4.50
2017,02,25,19,37,4.50
2017,02,25,19,38,4.50
2017,02,25,19,39,4.50
2017,02,25,19,40,4.50
2017,02,25,19,41,4.50
2017,02,25,19,42,4.50
2017,02,25,19,43,4.50
2017,02,25,19,44,4.50
2017,02,25,19,45,4.50
2017,02,25,19,46,4.50
2017,02,25,19,47,4.50
2017,02,25,19,48,4.50
2017,02,25,19,49,4.50
2017,02,25,19,50,4.50
2017,02,25,19,51,4.50
2017,02,25,19,52,4.50
2017,02,25,19,53,4.50
2017,02,25,19,54,4.50
2017,02,25,19,55,4.50
2017,02,25,19,56,4.50
2017,02,25,19,57,4.50
2017,02,25,19,58,4.50
2017,02,25,19,59,4.50
2017,02,25,20,00,4.50
2017,02,25,20,01,4.50
2017,02,25,20,02,4.50
2017,02,25,20,03,4.50
2017,02,25,20,04,4.60
2017,02,25,20,05,4.60
2017,02,25,20,06,4.60
2017,02,25,20,07,4.60
2017,02,25,20,08,4.60
2017,02,25,20,09,4.60
2017,02,25,20,10,4.60
2017,02,25,20,11,4.60
2017,02,25,20,12,4.60
2017,02,25,20,13,4.60
2017,02,25,20,14,4.60
2017,02,25,20,15,4.60
2017,02,25,20,16,4.60
2017,02,25,20,17,4.60
2017,02,25,20,18,4.60
2017,02,25,20,19,4.60
2017,02,25,20,20,4.60
2017,02,25,20,21,4.60
2017,02,25,20,22,4.60
2017,02,25,20,23,4.60
2017,02,25,20,24,4.60
2017,02,25,20,25,4.60
2017,02,25,20,26,4.60
2017,02,25,20,27,4.60
2017,02,25,20,28,4.60
2017,02,25,20,29,4.60
2017,02,25,20,30,4.60
2017,02,25,20,31,4.60
2017,02,25,20,32,4.50
2017,02,25,20,33,4.50
2017,02,25,20,34,4.50
2017,02,25,20,35,4.50
2017,02,25,20,36,4.50
2017,02,25,20,37,4.50
2017,02,25,20,38,4.50
2017,02,25,20,39,4.50
2017,02,25,20,40,4.50
2017,02,25,20,41,4.50
2017,02,25,20,42,4.50
2017,02,25,20,43,4.40
2017,02,25,20,44,4.40
2017,02,25,20,45,4.40
2017,02,25,20,46,4.40
2017,02,25,20,47,4.40
2017,02,25,20,49,4.40
2017,02,25,20,51,4.40
2017,02,25,20,52,4.30
2017,02,25,20,53,4.30
2017,02,25,20,54,4.30
2017,02,25,20,56,4.30
2017,02,25,20,57,4.30
2017,02,25,20,58,4.20
2017,02,25,20,59,4.20
2017,02,25,21,01,4.20
2017,02,25,21,02,4.20
2017,02,25,21,03,4.20
2017,02,25,21,04,4.20
2017,02,25,21,06,4.20
2017,02,25,21,07,4.20
2017,02,25,21,08,4.20
2017,02,25,21,09,4.20
2017,02,25,21,11,4.20
2017,02,25,21,12,4.20
2017,02,25,21,13,4.20
2017,02,25,21,14,4.20
2017,02,25,21,16,4.20
2017,02,25,21,17,4.20
2017,02,25,21,18,4.20
2017,02,25,21,19,4.20
2017,02,25,21,21,4.20
2017,02,25,21,22,4.20
2017,02,25,21,23,4.20
2017,02,25,21,24,4.20
2017,02,25,21,26,4.20
2017,02,25,21,27,4.20
2017,02,25,21,28,4.20
2017,02,25,21,29,4.20
2017,02,25,21,31,4.20
2017,02,25,21,32,4.20
2017,02,25,21,33,4.20
2017,02,25,21,34,4.20
2017,02,25,21,36,4.20
2017,02,25,21,37,4.20
2017,02,25,21,38,4.20
2017,02,25,21,39,4.20
2017,02,25,21,41,4.20
2017,02,25,21,42,4.20
2017,02,25,21,43,4.20
2017,02,25,21,44,4.20
2017,02,25,21,46,4.20
2017,02,25,21,47,4.20
2017,02,25,21,48,4.20
2017,02,25,21,49,4.20
2017,02,25,21,51,4.20
2017,02,25,21,52,4.20
2017,02,25,21,53,4.10
2017,02,25,21,54,4.10
2017,02,25,21,56,4.10